COMPLETED DISPATCHED CALLS FOR SERVICE

Welcome to the Jacksonville Sheriff’s Office Completed Dispatched Calls for Service webpage. This page displays calls for service made to the Jacksonville Sheriff's Office that have recently been completed. The data on this page is refreshed automatically.

This information is not intended to be used as official crime data. This program does not provide information about all crimes, and excludes specific incidents such as sexual assaults and child abuse.

Disclaimer: The Jacksonville Sheriff's Office makes every effort to produce and publish current and accurate information. No warranties, expressed or implied, are provided for the data herein, its use, or its interpretation. The services provided are for informational purposes only and should not be relied on for any type of legal action.

Last refreshed 5/19 16:31:35

Incident # Dispatched Block Address Signal Call Description  
190519350900 5-19 16:18 JAMMES/WILSON 12 RECKLESS DRIVER
190519350891 5-19 16:11 1500 S LANE AVE 1050 TRAFFIC STOP
190519350888 5-19 16:10 OLD MIDDLEBURG/ALACHUA 1050 TRAFFIC STOP
190519350885 5-19 16:10 1200 BRIDIER ST 76 ASSIST OTHER AGENCY
190519350881 5-19 16:07 5200 NORMANDY BLVD 76 ASSIST OTHER AGENCY
190519350879 5-19 16:05 NEW KINGS RD AND PATTERSON AVE 1050 TRAFFIC STOP
190519350878 5-19 16:04 4200 PHILIPS HWY 1050 TRAFFIC STOP
190519350877 5-19 16:04 4200 PHIL 1050 TRAFFIC STOP
190519350866 5-19 15:59 2700 S STONEHEDGE CT 1066 CANCEL
190519350835 5-19 15:59 6800 103RD ST 1066 CANCEL
190519350851 5-19 15:56 N I95 EXPWY AND MAX LEGGETT PKWY 16 ROAD OBSTRUCTION
190519350824 5-19 15:53 5400 E MORET DR 21CT BURGLARY CONVEYANCE TELESERVE
190519350855 5-19 15:52 UNIV/POWER 1050 TRAFFIC STOP
190519350846 5-19 15:52 CASSAT AVE AND BLACKBURN ST 4 AUTO CRASH
190519350845 5-19 15:52 3200 JUSTINA RD 73 DRUG INVESTIGATION
190519350819 5-19 15:49 400 STARRATT RD 37 UNVERIFIED 911 CALL
190519350805 5-19 15:49 700 N EDGEWOOD AVE 1066 CANCEL
190519350840 5-19 15:49 9800 ATLANTIC BLVD 63 DISPUTE
190519350811 5-19 15:48 7400 CALVIN ST 0 88 ARMED ASSAULT
190519350836 5-19 15:45 JAMMES/WILSON 1050 TRAFFIC STOP
190519350829 5-19 15:44 DUPONT AVE AND LA LOMA DR 64 NOISE COMPLAINT
190519350827 5-19 15:42 7000 WILEY RD 63 DISPUTE
190519350830 5-19 15:41 11800 OLD ST AUGUSTINE RD 96 ASSIST MOTORIST
190519350776 5-19 15:38 100 E 43RD ST 63 DISPUTE
190519350771 5-19 15:37 2800 SAND CASTLE LN 63 DISPUTE
190519350820 5-19 15:36 6000 MERRILL RD 9J THEFT JUST OCCURRED
190519350816 5-19 15:36 500 E BAY ST 22 DOMESTIC
190519350818 5-19 15:36 9700 BAYOU BLUFF DR 64 NOISE COMPLAINT
190519350803 5-19 15:33 BARNETT ST AND W 8TH ST 0 63 ARMED DISPUTE
190519350807 5-19 15:29 10900 HECKSCHER DR 56 JUVENILE COMPLAINT
190519350778 5-19 15:27 7400 LEM TURNER RD 27 MENTALLY ILL PERSON
190519350802 5-19 15:27 5200 COLLINS RD 73 DRUG INVESTIGATION
190519350741 5-19 15:24 1500 W 21ST ST 63 DISPUTE
190519350693 5-19 15:23 2200 W EDGEWOOD AVE 63 DISPUTE
190519350777 5-19 15:22 9300 NORFOLK BLVD 73 DRUG INVESTIGATION
190519350787 5-19 15:21 11400 BEACH BLVD 2 63 DISPUTE IMPAIRED/INTOXICATED
190519350794 5-19 15:21 MELSON AVE AND W 9TH ST 1050 TRAFFIC STOP
190519350731 5-19 15:19 8000 MERRILL RD 63 DISPUTE
190519350786 5-19 15:18 S MILLER OAKS DR AND SAN JOSE BLVD 1050 TRAFFIC STOP
190519350783 5-19 15:16 WILSON/FIRESTONE 1050 TRAFFIC STOP
190519350781 5-19 15:16 200 CHERRY RIDGE DR 63 DISPUTE
190519350780 5-19 15:14 N EDGEWOOD AVE AND ROCKWOOD DR 1050 TRAFFIC STOP
190519350779 5-19 15:14 1200 LABELLE ST 76 ASSIST OTHER AGENCY
190519350775 5-19 15:12 WILSON BLVD AND ANVERS BLVD 1050 TRAFFIC STOP
190519350774 5-19 15:12 S I95 EXPWY AND PHILIPS HWY 25 FIRE/EXPLOSION
190519350772 5-19 15:11 5200 SAMARITAN WAY 56 JUVENILE COMPLAINT
190519350769 5-19 15:09 4800 PLYMOUTH ST 13 SUSPICIOUS PERSON
190519350764 5-19 15:08 600 N ST JOHNS BLUFF RD 1050 TRAFFIC STOP
190519350761 5-19 15:07 6800 NORMANDY BLVD 9J THEFT JUST OCCURRED
190519350754 5-19 15:07 100 W STATE ST 13 SUSPICIOUS PERSON
190519350763 5-19 15:06 CASSAT/KINGSBURY 1050 TRAFFIC STOP
190519350759 5-19 15:05 3800 S SAN PABLO RD 22 DOMESTIC
190519350751 5-19 15:05 12700 ATLANTIC BLVD 63 DISPUTE
190519350760 5-19 15:04 OLD ST AUGUSTINE RD AND GREENLAND RD 16 ROAD OBSTRUCTION
190519350756 5-19 15:03 ROOSEVELT BLVD AND S MCDUFF AVE 3 HIT AND RUN CRASH
190519350757 5-19 15:02 N I95 EXPWY AND PHILIPS HWY 1050 TRAFFIC STOP
190519350730 5-19 15:02 3000 N MAIN ST 63 DISPUTE
190519350732 5-19 15:01 7700 NORMANDY BLVD 9J THEFT JUST OCCURRED
190519350734 5-19 15:01 5100 SHENANDOAH AVE 37 UNVERIFIED 911 CALL
190519350745 5-19 15:00 3900 SALISBURY RD 63 DISPUTE
190519350746 5-19 15:00 900 W CARLOTTA RD 56 JUVENILE COMPLAINT
190519350737 5-19 15:00 8400 BLANDING BLVD 4 AUTO CRASH
190519350753 5-19 14:59 ICW/S OF ST JOHNS RIVER 1050 TRAFFIC STOP
190519350698 5-19 14:59 300 MONUMENT RD 73 DRUG INVESTIGATION
190519350750 5-19 14:58 1200 E 1ST ST 13 SUSPICIOUS PERSON
190519350744 5-19 14:58 1100 WOODRUFF AVE 4 AUTO CRASH
190519350739 5-19 14:55 N I95 EXPWY AND N I295 EXPWY 13 SUSPICIOUS PERSON
190519350742 5-19 14:52 FLYNN RD AND GINGER DR 1050 TRAFFIC STOP
190519350738 5-19 14:51 ROOSEVELT BLVD AND SHAWNEE ST 1050 TRAFFIC STOP
190519350722 5-19 14:49 2600 N OLD MIDDLEBURG RD 63 DISPUTE
190519350701 5-19 14:48 2700 ROGERO RD 63 DISPUTE
190519350702 5-19 14:46 800 GOLFAIR BLVD 2 63 DISPUTE IMPAIRED/INTOXICATED
190519350638 5-19 14:46 9100 BAYMEADOWS RD 4 AUTO CRASH
190519350721 5-19 14:46 4300 GATE LN 1066 CANCEL
190519350729 5-19 14:46 W 8TH ST AND BOULEVARD 63 DISPUTE
190519350726 5-19 14:44 4100 SPRING PARK RD 1066 CANCEL
190519350715 5-19 14:41 7600 TACONY DR 63 DISPUTE
190519350718 5-19 14:40 4200 PHILIPS HWY 68 CON GAME/FLIM FLAM
190519350689 5-19 14:40 5500 PLAYA WAY 63 DISPUTE
190519350716 5-19 14:39 PLYMOUTH/RANDLOLP 1050 TRAFFIC STOP
190519350712 5-19 14:38 12000 SAN JOSE BLVD 1050 TRAFFIC STOP
190519350707 5-19 14:38 1400 E 25TH ST 20 PROWLER
190519350696 5-19 14:36 4000 HODGES BLVD 63 DISPUTE
190519350678 5-19 14:35 4100 N OLD MIDDLEBURG RD 2 63 DISPUTE IMPAIRED/INTOXICATED
190519350708 5-19 14:35 6000 ROOSEVELT 1050 TRAFFIC STOP
190519350680 5-19 14:30 10800 KEY HAVEN BLVD 73 DRUG INVESTIGATION
190519350662 5-19 14:30 7000 W 12TH ST 63 DISPUTE
190519350646 5-19 14:26 6300 ARLINGTON EXPWY 27 MENTALLY ILL PERSON
190519350691 5-19 14:25 200 E STATE ST 2 63 DISPUTE IMPAIRED/INTOXICATED
190519350692 5-19 14:24 7000 RAMONA BLVD 88 ASSAULT
190519350625 5-19 14:24 6900 N CHERBOURG AVE 22 DOMESTIC
190519350635 5-19 14:24 2000 PALAFOX ST 21C BURGLARY CONVEYANCE
190519350690 5-19 14:23 800 S LANE AVE 13 SUSPICIOUS PERSON
190519350611 5-19 14:23 7800 MORSE AVE 63 DISPUTE
190519350684 5-19 14:21 W VICTORIA LAKES DR AND SHREWSBURY DR 33 DISCHARGING OF FIREARM
190519350673 5-19 14:20 700 S CHAFFEE RD 1066 CANCEL
190519350640 5-19 14:18 RENNE DR AND SARA DR 11 ABANDONED VEHICLE
190519350685 5-19 14:18 7100 SAN JOSE BLVD 1050 TRAFFIC STOP
190519350682 5-19 14:18 1200 N KERNAN BLVD 96 ASSIST MOTORIST
190519350676 5-19 14:16 E 18TH ST AND N MARKET ST 13 SUSPICIOUS PERSON
190519350677 5-19 14:15 SAN JOSE BLVD AND N I295 1066 CANCEL
190519350649 5-19 14:14 6600 SOUTHPOINT PKWY 63 DISPUTE
190519350669 5-19 14:13 12100 LEM TURNER RD 9P THEFT IN PROGRESS
190519350663 5-19 14:13 12500 FLAGLER CENTER BLVD 12 RECKLESS DRIVER
190519350672 5-19 14:12 200 MONUMENT RD 17 PERSON DOWN OR SICK
190519350619 5-19 14:12 700 S CHAFFEE RD 4 AUTO CRASH
190519350666 5-19 14:12 9000 MERRILL RD 4 AUTO CRASH
190519350670 5-19 14:11 BLANDING/COLLINS 1050 TRAFFIC STOP
190519350664 5-19 14:09 3300 W 20TH ST 60 SUICIDE OR ATTEMPT
190519350665 5-19 14:08 1000 E ADAMS ST 4 AUTO CRASH
190519350655 5-19 14:08 12100 PHEON ST 1066 CANCEL
190519350659 5-19 14:07 100 N BUCKMAN BRG 16 ROAD OBSTRUCTION
190519350553 5-19 14:06 ATLANTIC BLVD AND ART MUSEUM DR 3 HIT AND RUN CRASH
190519350645 5-19 14:06 4700 PALMER AVE 37 UNVERIFIED 911 CALL
190519350608 5-19 14:05 4700 SALISBURY RD 63 DISPUTE
190519350651 5-19 14:05 700 TREKKER ST 1066 CANCEL
190519350653 5-19 14:04 300 S MCCARGO ST 50 FOUND/ABANDONED PROPERTY
190519350652 5-19 14:04 SAN JOSE BLVD AND N I295 EXPWY 68 CON GAME/FLIM FLAM
190519350643 5-19 14:03 PARK ST AND S LANE AVE 19 ANIMAL INVESTIGATION
190519350622 5-19 14:02 4800 LOCKSLEY AVE 8 MISSING PERSON
190519350574 5-19 14:01 6600 SAN JUAN AVE 63 DISPUTE
190519350615 5-19 14:01 1500 S LANE AVE 63 DISPUTE
190519350609 5-19 14:01 7300 BEACH BLVD 56 JUVENILE COMPLAINT
190519350644 5-19 13:57 S LANE AVE AND NORMANDY BLVD 4 53 TRAFFIC CRASH PERSON INJURED
190519350624 5-19 13:56 11900 LEM TURNER RD 27 MENTALLY ILL PERSON
190519350597 5-19 13:54 5000 TROUT RIVER BLVD 22 DOMESTIC
190519350636 5-19 13:54 FOREST EXIT I95 XY N RP AND N I95 EXPWY 16 ROAD OBSTRUCTION
190519350639 5-19 13:53 I295 SB/ST JOHNS 1050 TRAFFIC STOP
190519350633 5-19 13:53 E I10 EXPWY AND ROOSEVELT EXPWY 4 53 TRAFFIC CRASH PERSON INJURED
190519350630 5-19 13:52 6500 W ARANCIO DR 76 ASSIST OTHER AGENCY
190519350634 5-19 13:52 100 E MATHEWS BRG 16 ROAD OBSTRUCTION
190519350632 5-19 13:50 E I10 EXPWY AND S MCDUFF AVE 4 AUTO CRASH
190519350610 5-19 13:48 9800 HUTCHINSON PARK DR 5582 HOLDING ONE FOR SHOPLIFTING
190519350548 5-19 13:48 600 CARLTON ST 14C VANDALISM CONVEYANCE
190519350626 5-19 13:47 2000 RIVERSIDE AVE 68 CON GAME/FLIM FLAM
190519350613 5-19 13:47 8000 W BEAVER ST 13 SUSPICIOUS PERSON
190519350623 5-19 13:45 17300NMAIN 13 SUSPICIOUS PERSON
190519350591 5-19 13:45 1700 S SAN PABLO RD 63 DISPUTE
190519350621 5-19 13:44 7200 S OLD MIDDLEBURG RD 5388 ASSAULT INVOLVING INJURY
190519350620 5-19 13:44 7100 PHILIPS HWY 3 HIT AND RUN CRASH
190519350606 5-19 13:42 1200 LAKE SHORE BLVD 64 NOISE COMPLAINT
190519350612 5-19 13:42 700 OAKS MANOR CT 10R VEHICLE THEFT RECOVERY
190519350616 5-19 13:41 I295 SB/ST JOHNS RIVER 1050 TRAFFIC STOP
190519350499 5-19 13:35 800 GOLFAIR BLVD 73 DRUG INVESTIGATION
190519350505 5-19 13:35 8400 BLANDING BLVD 63 DISPUTE
190519350601 5-19 13:33 11000 W BACALL RD 22 DOMESTIC
190519350481 5-19 13:33 3600 N PEARL ST 63 DISPUTE
190519350577 5-19 13:32 8400 BLANDING BLVD 19 ANIMAL INVESTIGATION
190519350579 5-19 13:32 8200 W RAMONA BLVD 63 DISPUTE
190519350535 5-19 13:30 7600 S JANA LN 63 DISPUTE
190519350489 5-19 13:30 400 CENTURY 21 DR 22 DOMESTIC
190519350578 5-19 13:30 5500 PLAYA WAY 63 DISPUTE
190519350372 5-19 13:30 3500 PEELER RD 21C BURGLARY CONVEYANCE
190519350570 5-19 13:29 9300 103RD ST 63 DISPUTE
190519350595 5-19 13:28 11100 SAN JOSE BLVD 4 AUTO CRASH
190519350593 5-19 13:26 8500 TOUCHTON RD 63 DISPUTE
190519350585 5-19 13:26 ABESS BLVD AND N KERNAN BLVD 91 TRAFFIC LIGHT/RR CROSSING MALFUNCTION
190519350552 5-19 13:26 5400 ROOSEVELT BLVD 19 ANIMAL INVESTIGATION
190519350587 5-19 13:25 7400 POWERS AVE 2288 DOMESTIC DISPUTE WITH/ASSAULT
190519350589 5-19 13:25 S I295 EXPWY AND BLANDING BLVD 4 53 TRAFFIC CRASH PERSON INJURED
190519350590 5-19 13:25 11100 ATLANTIC BLVD 1050 TRAFFIC STOP
190519350586 5-19 13:24 S I295 EXPWY AND COLLINS RD 4 53 TRAFFIC CRASH PERSON INJURED
190519350584 5-19 13:23 1900 KINGS RD 63 DISPUTE
190519350581 5-19 13:23 3400 E HIDDEN LAKE DR 63 DISPUTE
190519350582 5-19 13:22 2000 BROOKLYN RD 22 DOMESTIC
190519350583 5-19 13:21 ICWS ST JOHN 1050 TRAFFIC STOP
190519350580 5-19 13:20 S I295 EXPWY AND TOWN CENTER PKWY 96 ASSIST MOTORIST
190519350576 5-19 13:20 7100 WILSON BLVD 63 DISPUTE
190519350414 5-19 13:19 3500 TOWNSEND BLVD 63 DISPUTE
190519350575 5-19 13:18 12800 MICANOPY LN 64 NOISE COMPLAINT
190519350566 5-19 13:15 13100 ATLANTIC BLVD 63 DISPUTE
190519350569 5-19 13:15 I295 SB/ST JOHNS RIVER 1050 TRAFFIC STOP
190519350455 5-19 13:14 8700 HARE AVE 10 VEHICLE THEFT
190519350497 5-19 13:12 900 W ADAMS ST 63 DISPUTE
190519350554 5-19 13:12 7500 FT CAROLINE RD 1066 CANCEL
190519350531 5-19 13:11 12300 WYNNFIELD LAKES DR 96 ASSIST MOTORIST
190519350564 5-19 13:10 I295 SB/ST JOHNS 1050 TRAFFIC STOP
190519350559 5-19 13:10 FT GEORGE RD 1066 CANCEL
190519350561 5-19 13:09 13400 ATLANTIC BLVD 13 SUSPICIOUS PERSON
190519350557 5-19 13:08 4600 ALBERMARLE AVE 37 UNVERIFIED 911 CALL
190519350560 5-19 13:08 I295 SB/ST JOHNS RIVER 1050 TRAFFIC STOP
190519350551 5-19 13:05 SPRING PARK RD AND W UNIVERSITY BLVD 1050 TRAFFIC STOP
190519350550 5-19 13:04 S I95 EXPWY AND J TURNER BUTLER BLVD 1050 TRAFFIC STOP
190519350528 5-19 13:04 500 E BAY ST 63 DISPUTE
190519350545 5-19 13:03 3600 HEDRICK ST 76 ASSIST OTHER AGENCY
190519350519 5-19 13:03 E 38TH ST AND N MAIN ST 76 ASSIST OTHER AGENCY
190519350549 5-19 13:02 CLEVELAND RD AND W EDGEWOOD AVE 22 DOMESTIC
190519350540 5-19 13:01 11200 E WINDTREE DR 6388 DISPUTE WITH ASSAULT
190519350544 5-19 12:59 N I95 EXPWY AND EMERSON ST 1050 TRAFFIC STOP
190519350541 5-19 12:58 900 SUPERIOR ST 21R BURGLARY RESIDENCE
190519350511 5-19 12:58 SKINNER LAKE DR AND GATE PKWY 4 AUTO CRASH
190519350525 5-19 12:57 1500 MT HERMAN ST 6388 DISPUTE WITH ASSAULT
190519350441 5-19 12:57 3800 COLLINS RD 63 DISPUTE
190519350392 5-19 12:55 9500 N REGENCY SQUARE BLVD 9 THEFT
190519350530 5-19 12:54 6800 RAPID RIVER DR 1066 CANCEL
190519350461 5-19 12:52 11900 ABESS BLVD 63 DISPUTE
190519350521 5-19 12:51 5600 SAN JOSE BLVD 63 DISPUTE
190519350508 5-19 12:51 6600 SOUTHPOINT PKWY 63 DISPUTE
190519350503 5-19 12:51 5800 W UNIVERSITY BLVD 63 DISPUTE
190519350509 5-19 12:50 BLANDING BLVD AND LAKE SHORE BLVD 4 63 CRASH INVOLVING DISPUTE
190519350513 5-19 12:50 1500 W 7TH ST 22 DOMESTIC
190519350523 5-19 12:49 500 WONDERWOOD DR 12 RECKLESS DRIVER
190519350522 5-19 12:48 2500 S LANE AV 1050 TRAFFIC STOP
190519350478 5-19 12:46 5900 ARLINGTON EXPWY 63 DISPUTE
190519350502 5-19 12:45 100 E 25TH ST 63 DISPUTE
190519350512 5-19 12:44 700 TREKKER ST 64 NOISE COMPLAINT
190519350495 5-19 12:44 8300 DIX ELLIS TRL 37 UNVERIFIED 911 CALL
190519350501 5-19 12:44 3000 S SAN PABLO RD 4 AUTO CRASH
190519350510 5-19 12:42 900 N EDGEWOOD AVE 9 THEFT
190519350507 5-19 12:37 12900 OXFORD CROSSING DR 22 DOMESTIC
190519350398 5-19 12:33 2600 DELLWOOD AVE 21C BURGLARY CONVEYANCE
190519350490 5-19 12:32 2100 DEBUTANTE DR 63 DISPUTE
190519350469 5-19 12:32 500 CHAFFEE POINT BLVD 63 DISPUTE
190519350496 5-19 12:31 700 N LAURA ST 4 AUTO CRASH
190519350477 5-19 12:31 4300 S TRENTON DR 22 DOMESTIC
190519350494 5-19 12:30 7800 103RD ST 63 DISPUTE
190519350488 5-19 12:25 100 E ASHLEY 13 SUSPICIOUS PERSON
190519350487 5-19 12:25 11900 PULASKI RD 4 53 TRAFFIC CRASH PERSON INJURED
190519350484 5-19 12:23 600 PECAN 4 AUTO CRASH
190519350483 5-19 12:22 7100 WILSON BLVD 54 ILLEGALLY PARKED CAR
190519350480 5-19 12:20 9500 ARLINGTON EXPWY 4 53 TRAFFIC CRASH PERSON INJURED
190519350407 5-19 12:18 600 PECAN PARK RD 4 AUTO CRASH
190519350453 5-19 12:17 S ST JOHNS BLUFF RD AND BAHIA DR 4 AUTO CRASH
190519350475 5-19 12:15 3300 FAIRBANKS RD 3 HIT AND RUN CRASH
190519350474 5-19 12:15 7200 POWERS AVE 63 DISPUTE
190519350476 5-19 12:14 11300 N MAIN ST 4 AUTO CRASH
190519350404 5-19 12:13 5400 LEAMING AVE 9 THEFT
190519350468 5-19 12:13 1300 PERTH RD 22 DOMESTIC
190519350379 5-19 12:13 11600 BRIAN LAKES DR 9 THEFT
190519350428 5-19 12:12 6500 SOLANDRA DR 22 DOMESTIC
190519350471 5-19 12:11 8000 BEACH BLVD 9 THEFT
190519350470 5-19 12:09 8700 BAYMEADOWS RD 50 FOUND/ABANDONED PROPERTY
190519350427 5-19 12:09 7600 TACONY DR 8 MISSING PERSON
190519350462 5-19 12:07 3500 CYPRESS ST 2288 DOMESTIC DISPUTE WITH/ASSAULT
190519350447 5-19 12:03 1900 KINGS RD 63 DISPUTE
190519350444 5-19 12:03 3700 E WEXFORD HOLLOW RD 63 DISPUTE
190519350464 5-19 12:03 700 N MAIN 2 IMPAIRED/INTOXICATED
190519350388 5-19 12:02 800 BRIDIER ST 79 OBSCENE / THREAT CALL OR LETTER
190519350438 5-19 12:00 8300 KINKAID CT 2288 DOMESTIC DISPUTE WITH/ASSAULT
190519350417 5-19 11:59 6900 CHAMPLAIN RD 4 AUTO CRASH
190519350460 5-19 11:59 9800 BAYMEADOWS RD 22 DOMESTIC
190519350457 5-19 11:58 6500 UNIVERSITY 96 ASSIST MOTORIST
190519350435 5-19 11:58 100 UNIVERSITY BLVD 4 AUTO CRASH
190519350452 5-19 11:57 N I295 EXPWY AND SAN JOSE BLVD 4 AUTO CRASH
190519350451 5-19 11:56 SS/OLD BAYMEADOWS 1050 TRAFFIC STOP
190519350445 5-19 11:54 11400 BEACH BLVD 27 MENTALLY ILL PERSON
190519350432 5-19 11:53 200 N LAURA ST 63 DISPUTE
190519350426 5-19 11:50 600 N NEWNAN ST 37 UNVERIFIED 911 CALL
190519350439 5-19 11:48 8100 N PARKRIDGE CIR 76 ASSIST OTHER AGENCY
190519350357 5-19 11:47 5300 TIMUQUANA RD 22 DOMESTIC
190519350420 5-19 11:46 7100 WILSON BLVD 63 DISPUTE
190519350410 5-19 11:45 2200 W EDGEWOOD AVE 63 DISPUTE
190519350434 5-19 11:44 W BEAVER ST AND N PEARL ST 63 DISPUTE
190519350403 5-19 11:43 14500 OLD ST AUGUSTINE RD 22 DOMESTIC
190519350396 5-19 11:43 BAYMEADOWS RD AND ANNIE ELIZA RD 4 AUTO CRASH
190519350380 5-19 11:41 6800 NORMANDY BLVD 4 AUTO CRASH
190519350317 5-19 11:40 5300 ARLINGTON EXPWY 63 DISPUTE
190519350429 5-19 11:40 BROADWAY AVE AND SUPERIOR ST 1050 TRAFFIC STOP
190519350408 5-19 11:39 5600 ORTEGA PARK BLVD 37 UNVERIFIED 911 CALL
190519350425 5-19 11:39 1600 LINDEN AVE 76 ASSIST OTHER AGENCY
190519350401 5-19 11:39 6000 S MAPLE LEAF DR 95IDT IDENTITY THEFT TELESERVE
190519350381 5-19 11:39 13800 OLD ST AUGUSTINE RD 14CT VANDALISM CONVEYANCE TELESERVE
190519350326 5-19 11:38 400 PECAN PARK RD 86T LOST PROPERTY (TELESERVE)
190519350409 5-19 11:37 9800 HUTCHINSON PARK DR 9P THEFT IN PROGRESS
190519350424 5-19 11:36 100 W UNION ST 2 IMPAIRED/INTOXICATED
190519350418 5-19 11:36 4500 W BIDDY LN 13 SUSPICIOUS PERSON
190519350385 5-19 11:34 4300 S TRENTON DR 22 DOMESTIC
190519350288 5-19 11:33 6000 LAKE RIDGE AVE 13 SUSPICIOUS PERSON
190519350413 5-19 11:32 11400 KALEEL RD 76 ASSIST OTHER AGENCY
190519350363 5-19 11:30 5000 KEY LIME DR 13 SUSPICIOUS PERSON
190519350405 5-19 11:29 J TURNER BUTLER BLVD AND S KERNAN BLVD 16 ROAD OBSTRUCTION
190519350399 5-19 11:29 S KERNAN BLVD AND FIRST COAST TECH PKWY 4 AUTO CRASH
190519350373 5-19 11:28 3000 MAYPORT RD 76 ASSIST OTHER AGENCY
190519350322 5-19 11:27 4500 COLLEGE ST 14C VANDALISM CONVEYANCE
190519350400 5-19 11:24 3500 SMITHFIELD ST 33 DISCHARGING OF FIREARM
190519350402 5-19 11:24 100 E COASTLINE DR 13 SUSPICIOUS PERSON
190519350305 5-19 11:24 8900 OLD KINGS RD 9 THEFT
190519350331 5-19 11:21 7500 ALGOOD ST 54 ILLEGALLY PARKED CAR
190519350377 5-19 11:21 2700 PARK ST 63 DISPUTE
190519350397 5-19 11:21 J TURNER BUTLER BLVD AND S KERNAN BLVD 16 ROAD OBSTRUCTION
190519350395 5-19 11:20 400 CENTURY 21 DR 22 DOMESTIC
190519350393 5-19 11:18 100 E ASHLEY ST 13 SUSPICIOUS PERSON
190519350310 5-19 11:17 1500 N LIBERTY ST 63 DISPUTE
190519350387 5-19 11:15 12100 LEM TURNER RD 13 SUSPICIOUS PERSON
190519350353 5-19 11:15 2800 SOPHIA ST 50 FOUND/ABANDONED PROPERTY
190519350386 5-19 11:14 100 ACME ST 1050 TRAFFIC STOP
190519350370 5-19 11:14 3300 LOWELL AVE 8 MISSING PERSON
190519350332 5-19 11:13 800 MELSON AVE 19 ANIMAL INVESTIGATION
190519350374 5-19 11:10 1900 ATLANTIC BLVD 63 DISPUTE
190519350355 5-19 11:10 5800 CARNATION RD 64 NOISE COMPLAINT
190519350375 5-19 11:08 J TURNER BUTLER BLVD AND HODGES BLVD 16 ROAD OBSTRUCTION
190519350362 5-19 11:08 4500 RIVER CITY DR 1066 CANCEL
190519350371 5-19 11:06 1300 CAUSEY LN 76 ASSIST OTHER AGENCY
190519350349 5-19 11:05 S I295 EXPWY AND GATE PKWY 96 ASSIST MOTORIST
190519350368 5-19 11:05 8100 VERNELL ST 9 THEFT
190519350354 5-19 11:03 3600 JAMMES RD 1066 CANCEL
190519350367 5-19 11:03 1700 N LOYOLA DR 19 ANIMAL INVESTIGATION
190519350296 5-19 11:03 3300 NET CT 50 FOUND/ABANDONED PROPERTY
190519350366 5-19 11:03 3800 W UNIVERSITY BLVD 76 ASSIST OTHER AGENCY
190519350364 5-19 11:02 4900 S RUNNYMEADE RD 1066 CANCEL
190519350365 5-19 11:02 1100 BERT RD 11 ABANDONED VEHICLE
190519350361 5-19 11:00 11300 W ISLAND SHORE DR 88 ASSAULT
190519350360 5-19 10:59 500 N MAIN ST 13 SUSPICIOUS PERSON
190519350356 5-19 10:59 ACOSTA/SAN MARCO 13 SUSPICIOUS PERSON
190519350330 5-19 10:58 3700 UNIVERSITY CLUB BLVD 21C BURGLARY CONVEYANCE
190519350278 5-19 10:56 7300 WAKEFIELD AVE 63 DISPUTE
190519350350 5-19 10:55 8100 FT LEE TRL 63 DISPUTE
190519350348 5-19 10:55 4800 BLANDING BLVD 60 SUICIDE OR ATTEMPT
190519350315 5-19 10:53 1500 W 30TH ST 22 DOMESTIC
190519350344 5-19 10:53 S I295 EXPWY AND J TURNER BUTLER BLVD 4 53 TRAFFIC CRASH PERSON INJURED
190519350346 5-19 10:52 6700 103RD ST 5582 HOLDING ONE FOR SHOPLIFTING
190519350276 5-19 10:49 10200 W BEAVER ST 21R BURGLARY RESIDENCE
190519350337 5-19 10:49 10600 KENNEDY LN 76 ASSIST OTHER AGENCY
190519350325 5-19 10:47 600 N WASHINGTON ST 0 63 ARMED DISPUTE
190519350328 5-19 10:47 500 N OCEAN ST 63 DISPUTE
190519350335 5-19 10:46 100 N ARLINGTON RD 1050 TRAFFIC STOP
190519350333 5-19 10:46 600 N MARKET 13 SUSPICIOUS PERSON
190519350309 5-19 10:42 1900 BRACKLAND ST 63 DISPUTE
190519350319 5-19 10:42 PHILIPS HWY AND AVENUES WALK BLVD 60 SUICIDE OR ATTEMPT
190519350318 5-19 10:41 700 N ARLINGTON RD 1050 TRAFFIC STOP
190519350316 5-19 10:41 800 N OCEAN ST 13 SUSPICIOUS PERSON
190519350298 5-19 10:38 5800 NORMANDY BLVD 63 DISPUTE
190519350306 5-19 10:37 1200 RIVERPLACE BLVD 9P THEFT IN PROGRESS
190519350301 5-19 10:37 2600 ROBERT ST 14C VANDALISM CONVEYANCE
190519350312 5-19 10:36 3300 STARRATT RD 63 DISPUTE
190519350279 5-19 10:36 6500 RESTLAWN DR 22 DOMESTIC
190519350311 5-19 10:35 700 N LIBERTY ST 86 LOST PROPERTY
190519350223 5-19 10:34 9100 LEM TURNER RD 2 22 DOMESTIC DISTURBANCE
190519350302 5-19 10:33 7800 NORMANDY BLVD 63 DISPUTE
190519350308 5-19 10:32 3400 S UNIVERSITY BLVD 1050 TRAFFIC STOP
190519350307 5-19 10:31 S OLD KINGS RD AND WEMBLEY RD 4 AUTO CRASH
190519350300 5-19 10:30 LAWTON AVE AND N MAIN ST 4 53 TRAFFIC CRASH PERSON INJURED
190519350297 5-19 10:27 6100 YOUNGERMAN CIR 63 DISPUTE
190519350294 5-19 10:24 00 W 21ST ST 96 ASSIST MOTORIST
190519350293 5-19 10:24 1800 FOSTER DR 13 SUSPICIOUS PERSON
190519350277 5-19 10:24 11200 BAPTIST HEALTH DR 56 JUVENILE COMPLAINT
190519350287 5-19 10:23 400 CENTURY 21 DR 63 DISPUTE
190519350291 5-19 10:23 2200 REDFERN RD 63 DISPUTE
190519350063 5-19 10:23 3600 S UNIVERSITY BLVD 9T THEFT (TELESERVE)
190519350149 5-19 10:22 1800 CASSAT AVE 95IDT IDENTITY THEFT TELESERVE
190519350250 5-19 10:22 1800 BALDWIN ST 9T THEFT (TELESERVE)
190519350286 5-19 10:21 ATLANTIC BLVD AND CARAVAN TRL 1050 TRAFFIC STOP
190519350050 5-19 10:21 1400 UNDINE AVE 86T LOST PROPERTY (TELESERVE)
190519350285 5-19 10:20 7000 RAMONA BLVD 4 AUTO CRASH
190519350269 5-19 10:19 1200 E 1ST ST 14C VANDALISM CONVEYANCE
190519350253 5-19 10:19 6900 N MAIN ST 21R BURGLARY RESIDENCE
190519350280 5-19 10:18 1600 KING ARTHUR RD 8 27 MISSING MENTALLY ILL
190519350271 5-19 10:12 4200 LOSCO RD 21C BURGLARY CONVEYANCE
190519350261 5-19 10:12 600 E 59TH ST 10 VEHICLE THEFT
190519350268 5-19 10:11 300 BERNARD RD 63 DISPUTE
190519350267 5-19 10:11 ARNOLD RD AND PECAN PARK RD 4 AUTO CRASH
190519350266 5-19 10:09 600 N EDGEWOOD AVE 3 HIT AND RUN CRASH
190519350265 5-19 10:09 700 ARLINGTON EXP 1050 TRAFFIC STOP
190519350258 5-19 10:07 2800 W 9TH ST 1066 CANCEL
190519350226 5-19 10:07 3700 UNIVERSITY BLVD 21C BURGLARY CONVEYANCE
190519350260 5-19 10:06 3600 N PEARL ST 63 DISPUTE
190519350240 5-19 10:04 7400 N RIDGEWAY RD 88 ASSAULT
190519350244 5-19 10:00 5000 SOUTEL DR 37 UNVERIFIED 911 CALL
190519350207 5-19 09:51 S LIBERTY ST AND E BAY ST 63 DISPUTE
190519350243 5-19 09:47 4200 LOCKHART DR 22 DOMESTIC
190519350241 5-19 09:47 3000 W 20TH ST 14C VANDALISM CONVEYANCE
190519350174 5-19 09:47 10300 ATLANTIC BLVD 4 AUTO CRASH
190519350197 5-19 09:45 500 AIRPORT CENTER DR 21B BURGLARY BUSINESS
190519350234 5-19 09:45 9900 NEW KINGS RD 63 DISPUTE
190519350239 5-19 09:45 7900 E BAYMEADOWS CIR 21C BURGLARY CONVEYANCE
190519350216 5-19 09:43 1800 E BARTRAM CIR 50 FOUND/ABANDONED PROPERTY
190519350227 5-19 09:42 1000 UNIVERSITY BLVD 10J VEHICLE THEFT JUST OCCURRED
190519350233 5-19 09:41 2000 COLLEGE ST 76 ASSIST OTHER AGENCY
190519350231 5-19 09:41 6000 ST AUGUSTINE RD 9 THEFT
190519350232 5-19 09:40 ST JOHNS RIVER/UNDER MATTHEWS BRIDGE 12 RECKLESS DRIVER
190519350230 5-19 09:39 5000 SHIRLEY AVE 60 SUICIDE OR ATTEMPT
190519350170 5-19 09:36 5900 N JOHN F KENNEDY DR 22 DOMESTIC
190519350180 5-19 09:34 SAN MARCO BLVD AND CEDAR ST 4 AUTO CRASH
190519350224 5-19 09:33 ST AUGUSTINE RD AND PHILIPS HWY 4 AUTO CRASH
190519350219 5-19 09:32 7500 MISHKIE DR 50 FOUND/ABANDONED PROPERTY
190519350163 5-19 09:32 9500 ARLINGTON EXPWY 63 DISPUTE
190519350206 5-19 09:31 100 GIRVIN RD 12 RECKLESS DRIVER
190519350220 5-19 09:30 COMMONWEALTH AVE AND WOODSTOCK AVE 13 SUSPICIOUS PERSON
190519350217 5-19 09:29 S I295 EXPWY AND COLLINS RD 4 53 TRAFFIC CRASH PERSON INJURED
190519350215 5-19 09:28 8500 BAYMEADOWS WAY 21C BURGLARY CONVEYANCE
190519350193 5-19 09:27 5400 SAN JUAN AVE 88 ASSAULT
190519350201 5-19 09:25 10000 BEAR VALLEY RD 19 ANIMAL INVESTIGATION
190519350205 5-19 09:24 200 BETHEL BAPTIST ST 63 DISPUTE
190519350202 5-19 09:24 4200 N PEARL ST 0 63 ARMED DISPUTE
190519350212 5-19 09:23 4200 N PEARL ST 2 63 DISPUTE IMPAIRED/INTOXICATED
190519350214 5-19 09:23 8700 BELLE RIVE BLVD 22 DOMESTIC
190519350195 5-19 09:23 2700 MONUMENT RD 4 AUTO CRASH
190519350134 5-19 09:20 2300 ERNEST ST 14R VANDALISM RESIDENCE
190519350196 5-19 09:14 100 E MATHEWS BRG 13 SUSPICIOUS PERSON
190519350171 5-19 09:11 ATLANTIC BLVD AND OGILVIE PARK LN 4 AUTO CRASH
190519350169 5-19 09:07 1000 FIELDS RD 63 DISPUTE
190519350188 5-19 09:07 7300 TIMBER FALLS CT 1066 CANCEL
190519350176 5-19 09:04 1600 N OLD MIDDLEBURG RD 50 FOUND/ABANDONED PROPERTY
190519350184 5-19 09:03 5800 CARNATION RD 64 NOISE COMPLAINT
190519350172 5-19 09:02 6700 COTTON TAIL LN 63 DISPUTE
190519350181 5-19 09:01 NORMANDY BLVD AND NORMANDY VILLAGE PKWY 4 AUTO CRASH
190519350179 5-19 09:00 6000 ARGYLE FOREST BLVD 5582 HOLDING ONE FOR SHOPLIFTING
190519350175 5-19 09:00 11800 MCCORMICK RD 63 DISPUTE
190519350164 5-19 09:00 8800 PERIMETER PARK BLVD 88 ASSAULT
190519350173 5-19 08:58 1900 BRACKLAND ST 63 DISPUTE
190519350168 5-19 08:51 3600 UNIVERSITY BLVD 13 SUSPICIOUS PERSON
190519350167 5-19 08:50 1100 S LANE AVE 22 DOMESTIC
190519350144 5-19 08:47 7000 S OLD KINGS RD 9T THEFT (TELESERVE)
190519350162 5-19 08:47 1900 BLANDING BLVD 1 IMPAIRED/DRUNK DRIVER
190519350152 5-19 08:44 DUNN CREEK RD AND NEW BERLIN RD 73 DRUG INVESTIGATION
190519350156 5-19 08:42 10900 OLD GAINESVILLE RD 57 PERSON CALLING FOR HELP
190519350150 5-19 08:42 1400 FAIRFAX ST 63 DISPUTE
190519350154 5-19 08:41 W EVE DR AND BEACH BLVD 4 AUTO CRASH
190519350128 5-19 08:40 11800 N NARROW OAK LN 95 FRAUD/FORGED (CHECK, ID, RX)
190519350151 5-19 08:37 300 RICKY DR 63 DISPUTE
190519350142 5-19 08:32 5300 CAMELOT FOREST DR 1066 CANCEL
190519350147 5-19 08:31 1300 INGLESIDE AVE 13 SUSPICIOUS PERSON
190519350145 5-19 08:27 8000 LEM TURNER RD 1066 CANCEL
190519350136 5-19 08:23 5000 HOLLYCREST DR 63 DISPUTE
190519350138 5-19 08:20 200 W STATE ST 63 DISPUTE
190519350124 5-19 08:19 100 W ADAMS ST 13 SUSPICIOUS PERSON
190519350133 5-19 08:18 11900 ATLANTIC BLVD 63 DISPUTE
190519350090 5-19 08:17 7100 BEACH BLVD 50 FOUND/ABANDONED PROPERTY
190519350132 5-19 08:16 1300 WOLFE ST 13 SUSPICIOUS PERSON
190519350130 5-19 08:15 6500 RESTLAWN DR 22 DOMESTIC
190519350098 5-19 08:11 3400 W WENTWORTH CIR 21C BURGLARY CONVEYANCE
190519350119 5-19 08:04 I10WB/LENOX 1050 TRAFFIC STOP
190519350111 5-19 07:58 5400 BLANDING BLVD 1 IMPAIRED/DRUNK DRIVER
190519350113 5-19 07:57 S I95 EXPWY AND GOLFAIR BLVD 4 AUTO CRASH
190519350109 5-19 07:54 3400 PHILIPS HWY 63 DISPUTE
190519350107 5-19 07:53 2000 RIVERSIDE AVE 68 CON GAME/FLIM FLAM
190519350108 5-19 07:52 7000 103RD ST 63 DISPUTE
190519350106 5-19 07:52 6300 BEACH BLVD 27 MENTALLY ILL PERSON
190519350105 5-19 07:49 1900 GREENWOOD AVE 76 ASSIST OTHER AGENCY
190519350100 5-19 07:47 HECKSCHER DR AND BLOUNT ISLAND BLVD 91 TRAFFIC LIGHT/RR CROSSING MALFUNCTION
190519350099 5-19 07:46 7000 103RD ST 50 FOUND/ABANDONED PROPERTY
190519350094 5-19 07:44 6300 118TH ST 1066 CANCEL
190519350096 5-19 07:43 100 N BUCKMAN BRG 16 ROAD OBSTRUCTION
190519350079 5-19 07:40 1800 JONES ST 13 SUSPICIOUS PERSON
190519350091 5-19 07:39 5300 CHENANGO BLVD 21C BURGLARY CONVEYANCE
190519350089 5-19 07:38 200 E DUVAL 13 SUSPICIOUS PERSON
190519350080 5-19 07:37 4300 SOUTHSIDE BLVD 21C BURGLARY CONVEYANCE
190519350085 5-19 07:36 1500 W 36TH ST 63 DISPUTE
190519350083 5-19 07:34 1300 W BEAVER ST 4 53 TRAFFIC CRASH PERSON INJURED
190519350075 5-19 07:34 13500 CITICARDS WAY 13 SUSPICIOUS PERSON
190519350076 5-19 07:29 ATLAS DR AND JACKSON RD 13 SUSPICIOUS PERSON
190519350078 5-19 07:26 ROSSELLE ST AND S MCDUFF AVE 11 ABANDONED VEHICLE
190519350067 5-19 07:22 100 W UNION ST 63 DISPUTE
190519350042 5-19 07:21 200 W UNION ST 73 DRUG INVESTIGATION
190519350072 5-19 07:20 S I295 EXPWY AND ZOO PKWY 91 TRAFFIC LIGHT/RR CROSSING MALFUNCTION
190519350057 5-19 07:18 7600 W BAYMEADOWS CIR 13 SUSPICIOUS PERSON
190519350073 5-19 07:18 5100 NORWOOD AVE 60 SUICIDE OR ATTEMPT
190519350066 5-19 07:11 3200 BEACH BLVD 4 53 TRAFFIC CRASH PERSON INJURED
190519350068 5-19 07:10 13800 LEM TURNER RD 13 SUSPICIOUS PERSON
190519350065 5-19 07:09 7200 KARENITA DR 37 UNVERIFIED 911 CALL
190519350059 5-19 07:08 BEACH BLVD AND SOUTHSIDE BLVD 91 TRAFFIC LIGHT/RR CROSSING MALFUNCTION
190519350054 5-19 07:01 5200 NEW KINGS RD 63 DISPUTE
190519350056 5-19 07:01 1800 N DAVIS ST 60 SUICIDE OR ATTEMPT
190519350053 5-19 06:58 7800 ATLANTIC BLVD 21B BURGLARY BUSINESS
190519350016 5-19 06:54 7100 WILSON BLVD 54 ILLEGALLY PARKED CAR
190519350051 5-19 06:52 2100 MAYPORT RD 7 DEAD PERSON
190519350026 5-19 06:48 DANDY AVE AND CENTURY ST 80 PROSTITUTION (ONLY)
190519350046 5-19 06:40 JTB 38 TRAFFIC ASSIGNMENT
190519350039 5-19 06:38 N I295 EXPWY AND PHILIPS HWY 16 ROAD OBSTRUCTION
190519350043 5-19 06:36 3100 IMESON RD 1066 CANCEL
190519350037 5-19 06:30 1000 GOLFAIR BLVD 76 ASSIST OTHER AGENCY
190519350034 5-19 06:29 3600 GALICIA RD 63 DISPUTE
190519350030 5-19 06:24 1900 W 4TH ST 22 DOMESTIC
190519350033 5-19 06:24 400 STARRATT RD 2 IMPAIRED/INTOXICATED
190519350019 5-19 06:20 7700 N COATBRIDGE LN 76 ASSIST OTHER AGENCY
190519350017 5-19 06:11 7900 103RD ST 13 SUSPICIOUS PERSON
190519350015 5-19 06:03 600 E ADAMS ST 60 SUICIDE OR ATTEMPT
190519350011 5-19 05:49 7700 INDIA AVE 63 DISPUTE
190519350006 5-19 05:42 2900 E KLINE RD 10 VEHICLE THEFT
190519349973 5-19 05:42 8300 WESTERN WAY 21C BURGLARY CONVEYANCE
190519350004 5-19 05:32 7000 103RD ST 60 SUICIDE OR ATTEMPT
190519349990 5-19 05:30 1500 WINDLE ST 88 ASSAULT
190519349998 5-19 05:29 E 2ND ST AND N MARKET ST 63 DISPUTE
190519350001 5-19 05:22 1000 ARCO DR 10R VEHICLE THEFT RECOVERY
190519349996 5-19 05:22 14000 BEACH BLVD 63 DISPUTE
190519350000 5-19 05:20 S CHAFFEE RD AND PANTHER CREEK PKWY 13 SUSPICIOUS PERSON
190519349967 5-19 05:16 1900 HUBBARD ST 64 NOISE COMPLAINT
190519349965 5-19 05:15 8700 SOUTHSIDE BLVD 64 NOISE COMPLAINT
190519349994 5-19 05:05 2500 WOODLAND ST 5388 ASSAULT INVOLVING INJURY
190519349991 5-19 04:59 1900 PULLMAN AVE 13 SUSPICIOUS PERSON
190519349987 5-19 04:54 2800 SUNLAND DR 76 ASSIST OTHER AGENCY
190519349981 5-19 04:49 2900 RAYFORD ST 6388 DISPUTE WITH ASSAULT
190519349979 5-19 04:46 100 SHIRCLIFF WAY 7 DEAD PERSON
190519349978 5-19 04:46 2100 DOCTOR ROY BAKER ST 60 SUICIDE OR ATTEMPT
190519349971 5-19 04:42 5400 COLLINS RD 63 DISPUTE
190519349966 5-19 04:34 S I295 EXPWY AND S SR9B EXPWY 4 53 TRAFFIC CRASH PERSON INJURED
190519349964 5-19 04:34 100 N DAMES POINT BRG 16 ROAD OBSTRUCTION
190519349963 5-19 04:32 8300 FREEDOM CROSSING TRL 64 NOISE COMPLAINT
190519349959 5-19 04:25 2500 JOHNSON AVE 22 DOMESTIC
190519349957 5-19 04:21 100 E 65TH ST 21B BURGLARY BUSINESS
190519349956 5-19 04:20 2400 MONCRIEF RD 13 SUSPICIOUS PERSON
190519349954 5-19 04:17 8200 MERIVALE RD 13 SUSPICIOUS PERSON
190519349950 5-19 04:16 103RD ST AND S I295 EXPWY 1 IMPAIRED/DRUNK DRIVER
190519349929 5-19 04:15 400 PARK ST 63 DISPUTE
190519349953 5-19 04:12 1700 N EDGEWOOD AVE 1050 TRAFFIC STOP
190519349952 5-19 04:12 9500 EAST WATER ST 13 SUSPICIOUS PERSON
190519349927 5-19 04:11 ASHLEY MELISSE BLVD AND COLLINSWOOD DR 96 ASSIST MOTORIST
190519349951 5-19 04:11 BERGEN ST AND HOOD AVE 1050 TRAFFIC STOP
190519349949 5-19 04:10 N EDGEWOOD AVE AND W 12TH ST 1050 TRAFFIC STOP
190519349947 5-19 04:07 CRASSIA ST AND N EDGEWOOD AVE 1050 TRAFFIC STOP
190519349946 5-19 04:06 7200 POWERS AVE 62 PERSON CUT
190519349944 5-19 04:05 100 S HART BRG 16 ROAD OBSTRUCTION
190519349935 5-19 04:05 2300 CALADIUM RD 0 63 ARMED DISPUTE
190519349945 5-19 04:05 ADAMS AVE AND RIVERVIEW ST 1050 TRAFFIC STOP
190519349940 5-19 04:04 100 SHIRCLIFF WAY 7 DEAD PERSON
190519349943 5-19 04:03 7900 DWYER DR 2 63 DISPUTE IMPAIRED/INTOXICATED
190519349933 5-19 04:00 2300 SHULL DR 64 NOISE COMPLAINT